Hourly Data Report for September 06, 2017

All times are specified in Local Standard Time (LST). Add 1 hour to adjust for Daylight Saving Time where and when it is observed.

ARCTIC BAY CS
NUNAVUT

72°59'34.000" N
85°00'44.000" W
10.00 m
2400404
71592
XAT

Download Data

Hourly Data (September 2017)
Hourly Data Report for September 6, 2017
Temp Definition
°C
Dew Point Temp Definition
°C
Rel Hum Definition
%
Wind Dir Definition
10's deg

Wind Spd Definition
km/h
Visibility Definition
km
Stn Press Definition
kPa
Hmdx Definition


Wind Chill Definition


Weather Definition


TIME
00:00 -1.8 -6.1 72 29 7   101.26   -4 LegendNANA
01:00 -1.7 -5.9 73 30 12   101.29   -6 LegendNANA
02:00 -1.9 -6.4 72 29 12   101.29   -6 LegendNANA
03:00 -2.0 -6.0 74 33 8   101.30   -5 LegendNANA
04:00 -1.9 -6.1 73 33 12   101.30   -6 LegendNANA
05:00 -1.7 -5.7 74 31 15   101.31   -7 LegendNANA
06:00 -2.0 -6.0 74 30 18   101.31   -7 LegendNANA
07:00 -2.1 -6.7 71 31 14   101.29   -7 LegendNANA
08:00 -2.0 -6.0 74 30 16   101.31   -7 LegendNANA
09:00 -2.0 -6.6 71 28 11   101.28   -6 LegendNANA
10:00 -1.8 -5.3 77 28 13   101.25   -6 LegendNANA
11:00 -1.1 -4.5 78 27 14   101.23   -6 LegendNANA
12:00 -0.8 -4.4 77 27 15   101.24   -5 LegendNANA
13:00 -0.7 -4.5 76 31 11   101.26   -4 LegendNANA
14:00 -0.3 -4.1 76 29 15   101.27   -5 LegendNANA
15:00 0.0 -3.3 78 28 18   101.27   -5 LegendNANA
16:00 -0.1 -4.3 74 29 10   101.29   -3 LegendNANA
17:00 0.2 -3.3 78 30 14   101.29     LegendNANA
18:00 0.5 -3.3 76 28 17   101.26     LegendNANA
19:00 0.4 -2.7 79 30 18   101.26     LegendNANA
20:00 0.0 -3.1 80 29 17   101.28   -5 LegendNANA
21:00 -0.3 -3.3 80 29 16   101.27   -5 LegendNANA
22:00 -0.3 -3.5 79 29 15   101.26   -5 LegendNANA
23:00 -0.1 -3.3 79 28 17   101.25   -5 LegendNANA

Notes on Data Quality.

Legend

  • E = Estimated
  • M = Missing
  • NA = Not Available
  • ‡ = Partner data that is not subject to review by the National Climate Archives
Date modified: